• In Uzbekistan
  • List of Countries
  • For 7 days
  • Water Temperature
  • Satellite Maps
  • Weather Map
  • Weather Widgets
  • user-avatar
    Login

    Hourly Weather Taba

    Today, 19 September, Wednesday

    Time Temperature Precipitation Wind Pressure Humidity
    00:00 +25°C° 0 mm 2 mps 691 mmHg 60%
    01:00 +24°C° 0 mm 2 mps 691 mmHg 63%
    02:00 +24°C° 0 mm 2 mps 691 mmHg 64%
    03:00 +23°C° 0 mm 2 mps 691 mmHg 65%
    04:00 +23°C° 0 mm 2 mps 691 mmHg 67%
    05:00 +21°C° 0 mm 2 mps 691 mmHg 68%
    06:00 +23°C° 0 mm 2 mps 691 mmHg 62%
    07:00 +24°C° 0 mm 2 mps 692 mmHg 57%
    08:00 +26°C° 0 mm 3 mps 692 mmHg 50%
    09:00 +27°C° 0 mm 3 mps 692 mmHg 44%
    10:00 +29°C° 0 mm 3 mps 693 mmHg 38%
    11:00 +30°C° 0 mm 4 mps 693 mmHg 32%
    12:00 +32°C° 0 mm 4 mps 693 mmHg 29%
    13:00 +33°C° 0 mm 4 mps 692 mmHg 26%
    14:00 +34°C° 0 mm 4 mps 692 mmHg 24%
    15:00 +33°C° 0 mm 4 mps 692 mmHg 24%
    16:00 +33°C° 0 mm 4 mps 692 mmHg 24%
    17:00 +32°C° 0 mm 5 mps 692 mmHg 24%
    18:00 +30°C° 0 mm 4 mps 692 mmHg 27%
    19:00 +29°C° 0 mm 4 mps 692 mmHg 30%
    20:00 +28°C° 0 mm 3 mps 692 mmHg 34%
    21:00 +27°C° 0 mm 3 mps 692 mmHg 39%
    22:00 +26°C° 0 mm 3 mps 692 mmHg 44%
    23:00 +25°C° 0 mm 3 mps 692 mmHg 49%

    Tomorrow, 20 September, Thursday

    Time Temperature Precipitation Wind Pressure Humidity
    00:00 +25°C° 0 mm 2 mps 692 mmHg 53%
    01:00 +24°C° 0 mm 2 mps 692 mmHg 57%
    02:00 +24°C° 0 mm 2 mps 692 mmHg 61%
    03:00 +23°C° 0 mm 2 mps 692 mmHg 63%
    04:00 +23°C° 0 mm 2 mps 692 mmHg 64%
    05:00 +21°C° 0 mm 2 mps 691 mmHg 66%
    06:00 +24°C° 0 mm 2 mps 692 mmHg 59%
    07:00 +25°C° 0 mm 2 mps 692 mmHg 52%
    08:00 +26°C° 0 mm 3 mps 693 mmHg 45%
    09:00 +28°C° 0 mm 3 mps 693 mmHg 39%
    10:00 +29°C° 0 mm 3 mps 693 mmHg 33%
    11:00 +32°C° 0 mm 4 mps 693 mmHg 27%
    12:00 +33°C° 0 mm 4 mps 693 mmHg 25%
    13:00 +34°C° 0 mm 4 mps 693 mmHg 23%
    14:00 +34°C° 0 mm 4 mps 692 mmHg 21%
    15:00 +34°C° 0 mm 4 mps 692 mmHg 22%
    16:00 +33°C° 0 mm 5 mps 692 mmHg 23%
    17:00 +33°C° 0 mm 5 mps 691 mmHg 24%
    18:00 +30°C° 0 mm 4 mps 691 mmHg 29%
    19:00 +29°C° 0 mm 4 mps 692 mmHg 34%
    20:00 +28°C° 0 mm 4 mps 692 mmHg 38%
    21:00 +27°C° 0 mm 3 mps 692 mmHg 43%
    22:00 +26°C° 0 mm 3 mps 692 mmHg 48%
    23:00 +25°C° 0 mm 2 mps 691 mmHg 53%

    Day after tomorrow, 21 September, Friday

    Time Temperature Precipitation Wind Pressure Humidity
    00:00 +25°C° 0 mm 2 mps 691 mmHg 55%
    01:00 +24°C° 0 mm 2 mps 691 mmHg 57%
    02:00 +24°C° 0 mm 2 mps 691 mmHg 60%
    03:00 +23°C° 0 mm 2 mps 691 mmHg 61%
    04:00 +23°C° 0 mm 2 mps 691 mmHg 63%
    05:00 +21°C° 0 mm 2 mps 691 mmHg 64%
    06:00 +22°C° 0 mm 3 mps 691 mmHg 59%
    07:00 +25°C° 0 mm 3 mps 692 mmHg 53%
    08:00 +26°C° 0 mm 3 mps 692 mmHg 47%
    09:00 +27°C° 0 mm 3 mps 692 mmHg 41%
    10:00 +29°C° 0 mm 4 mps 692 mmHg 35%
    11:00 +32°C° 0 mm 4 mps 693 mmHg 29%
    12:00 +33°C° 0 mm 4 mps 692 mmHg 27%
    13:00 +34°C° 0 mm 4 mps 692 mmHg 25%
    14:00 +35°C° 0 mm 4 mps 692 mmHg 22%
    15:00 +34°C° 0 mm 4 mps 692 mmHg 23%
    16:00 +33°C° 0 mm 4 mps 691 mmHg 24%
    17:00 +33°C° 0 mm 4 mps 691 mmHg 25%
    18:00 +32°C° 0 mm 4 mps 692 mmHg 31%
    19:00 +29°C° 0 mm 4 mps 692 mmHg 36%
    20:00 +28°C° 0 mm 3 mps 692 mmHg 41%
    21:00 +27°C° 0 mm 3 mps 692 mmHg 47%
    22:00 +26°C° 0 mm 3 mps 692 mmHg 52%
    23:00 +25°C° 0 mm 2 mps 692 mmHg 57%

    22 September, Saturday

    Time Temperature Precipitation Wind Pressure Humidity
    00:00 +25°C° 0 mm 2 mps 692 mmHg 60%
    01:00 +24°C° 0 mm 2 mps 692 mmHg 63%
    02:00 +24°C° 0 mm 2 mps 691 mmHg 65%
    03:00 +23°C° 0 mm 2 mps 691 mmHg 66%
    04:00 +23°C° 0 mm 2 mps 691 mmHg 66%
    05:00 +21°C° 0 mm 2 mps 691 mmHg 67%
    06:00 +23°C° 0 mm 2 mps 692 mmHg 61%
    07:00 +24°C° 0 mm 3 mps 692 mmHg 55%
    08:00 +26°C° 0 mm 3 mps 693 mmHg 49%
    09:00 +27°C° 0 mm 3 mps 693 mmHg 43%
    10:00 +29°C° 0 mm 3 mps 693 mmHg 38%
    11:00 +31°C° 0 mm 3 mps 693 mmHg 32%
    12:00 +33°C° 0 mm 3 mps 693 mmHg 29%
    13:00 +34°C° 0 mm 3 mps 692 mmHg 27%
    14:00 +35°C° 0 mm 3 mps 692 mmHg 24%
    15:00 +34°C° 0 mm 4 mps 692 mmHg 25%
    16:00 +34°C° 0 mm 4 mps 692 mmHg 26%
    17:00 +33°C° 0 mm 4 mps 692 mmHg 27%
    18:00 +32°C° 0 mm 4 mps 692 mmHg 31%
    19:00 +29°C° 0 mm 3 mps 692 mmHg 36%
    20:00 +28°C° 0 mm 3 mps 693 mmHg 41%
    21:00 +27°C° 0 mm 3 mps 693 mmHg 46%
    22:00 +26°C° 0 mm 3 mps 693 mmHg 50%
    23:00 +25°C° 0 mm 2 mps 693 mmHg 55%

    23 September, Sunday

    Time Temperature Precipitation Wind Pressure Humidity
    00:00 +25°C° 0 mm 2 mps 692 mmHg 59%
    01:00 +24°C° 0 mm 2 mps 692 mmHg 62%
    02:00 +23°C° 0 mm 2 mps 692 mmHg 65%
    03:00 +23°C° 0 mm 2 mps 692 mmHg 68%
    04:00 +23°C° 0 mm 2 mps 692 mmHg 70%
    05:00 +21°C° 0 mm 2 mps 692 mmHg 72%
    06:00 +22°C° 0 mm 3 mps 692 mmHg 68%
    07:00 +24°C° 0 mm 3 mps 693 mmHg 64%
    08:00 +25°C° 0 mm 3 mps 693 mmHg 60%
    09:00 +27°C° 0 mm 3 mps 693 mmHg 52%
    10:00 +28°C° 0 mm 3 mps 693 mmHg 45%
    11:00 +30°C° 0 mm 4 mps 694 mmHg 38%
    12:00 +32°C° 0 mm 4 mps 693 mmHg 34%
    13:00 +33°C° 0 mm 4 mps 693 mmHg 31%
    14:00 +34°C° 0 mm 4 mps 692 mmHg 27%
    15:00 +34°C° 0 mm 4 mps 692 mmHg 28%
    16:00 +33°C° 0 mm 4 mps 692 mmHg 29%
    17:00 +33°C° 0 mm 4 mps 692 mmHg 29%
    18:00 +32°C° 0 mm 4 mps 692 mmHg 33%
    19:00 +29°C° 0 mm 4 mps 693 mmHg 37%
    20:00 +28°C° 0 mm 3 mps 693 mmHg 42%
    21:00 +27°C° 0 mm 3 mps 693 mmHg 46%
    22:00 +26°C° 0 mm 3 mps 692 mmHg 51%
    23:00 +25°C° 0 mm 2 mps 692 mmHg 55%

    24 September, Monday

    Time Temperature Precipitation Wind Pressure Humidity
    00:00 +25°C° 0 mm 2 mps 692 mmHg 58%
    01:00 +24°C° 0 mm 2 mps 692 mmHg 61%
    02:00 +24°C° 0 mm 2 mps 691 mmHg 64%
    03:00 +23°C° 0 mm 2 mps 691 mmHg 66%
    04:00 +23°C° 0 mm 2 mps 691 mmHg 68%
    05:00 +21°C° 0 mm 2 mps 691 mmHg 70%
    06:00 +23°C° 0 mm 2 mps 692 mmHg 66%
    07:00 +24°C° 0 mm 3 mps 692 mmHg 61%
    08:00 +26°C° 0 mm 3 mps 692 mmHg 56%
    09:00 +27°C° 0 mm 3 mps 692 mmHg 49%
    10:00 +29°C° 0 mm 3 mps 692 mmHg 42%
    11:00 +31°C° 0 mm 3 mps 692 mmHg 34%
    12:00 +34°C° 0 mm 3 mps 692 mmHg 31%
    13:00 +35°C° 0 mm 3 mps 692 mmHg 27%
    14:00 +36°C° 0 mm 3 mps 691 mmHg 23%
    15:00 +35°C° 0 mm 3 mps 691 mmHg 24%
    16:00 +35°C° 0 mm 3 mps 691 mmHg 25%
    17:00 +34°C° 0 mm 3 mps 691 mmHg 25%
    18:00 +33°C° 0 mm 3 mps 691 mmHg 30%
    19:00 +31°C° 0 mm 2 mps 691 mmHg 34%
    20:00 +29°C° 0 mm 2 mps 692 mmHg 39%
    21:00 +28°C° 0 mm 2 mps 691 mmHg 44%
    22:00 +27°C° 0 mm 2 mps 691 mmHg 49%
    23:00 +26°C° 0 mm 2 mps 691 mmHg 54%
    Show more